KLM71Y EHAM-LPPT

Flight info

Callsign KLM71Y
Flight time 2h 36m
Altitude 33000
Route WOODY DCT CIV DCT MEDIL DCT KOVIN DCT NIDUV DCT KIHVI UN872 ERIGA UZ218 FUJTI DCT BAKUP DCT BATAX DCT INBOM
Aircraft A21N/M-SDE3FGHIRWY/LB1

Departure

Time 2026-04-30 18:11
Airport Amsterdam Airport Schiphol (EHAM)

Arrival

Time 2026-04-30 20:48
Airport Lisbon Humberto Delgado Airport (LPPT)
Time Latitude Longitude Altitude Speed Heading
2026-04-30 17:46 52.30707 4.77156 -4 ft 0 kts
2026-04-30 17:59 52.30691 4.77154 -4 ft 2 kts
2026-04-30 18:00 52.30650 4.77099 -4 ft 1 kts 89°
2026-04-30 18:00 52.30650 4.77085 -4 ft 0 kts 94°
2026-04-30 18:02 52.30646 4.77218 -4 ft 9 kts 94°
2026-04-30 18:03 52.30654 4.77582 -4 ft 10 kts 49°
2026-04-30 18:04 52.30918 4.77613 -4 ft 13 kts
2026-04-30 18:05 52.31352 4.77651 -4 ft 19 kts
2026-04-30 18:06 52.31565 4.77067 -4 ft 17 kts 266°
2026-04-30 18:07 52.31539 4.76277 -3 ft 17 kts 266°
2026-04-30 18:08 52.31520 4.75707 -3 ft 16 kts 266°
2026-04-30 18:09 52.31494 4.74962 -2 ft 16 kts 268°
2026-04-30 18:10 52.31668 4.74767 -2 ft 0 kts 87°
2026-04-30 18:11 52.31751 4.77164 -2 ft 161 kts 87°
2026-04-30 18:11 52.30682 4.81806 2041 ft 171 kts 159°
2026-04-30 18:12 52.26878 4.84026 3347 ft 221 kts 155°
2026-04-30 18:13 52.23724 4.84794 4764 ft 244 kts 175°
2026-04-30 18:13 52.19012 4.84682 6715 ft 262 kts 176°
2026-04-30 18:14 52.14709 4.84576 8518 ft 271 kts 176°
2026-04-30 18:15 52.08981 4.84453 10740 ft 283 kts 176°
2026-04-30 18:15 52.02551 4.83990 11784 ft 337 kts 188°
2026-04-30 18:16 51.97927 4.81166 12503 ft 368 kts 202°
2026-04-30 18:16 51.93265 4.77450 13536 ft 376 kts 203°
2026-04-30 18:17 51.90920 4.75595 14060 ft 379 kts 203°
2026-04-30 18:17 51.88504 4.73696 14571 ft 381 kts 203°
2026-04-30 18:17 51.83797 4.69557 15626 ft 390 kts 210°
2026-04-30 18:18 51.81511 4.67125 16152 ft 393 kts 211°
2026-04-30 18:18 51.79239 4.64691 16669 ft 396 kts 211°
2026-04-30 18:18 51.76895 4.62205 17192 ft 399 kts 211°
2026-04-30 18:18 51.74581 4.59772 17720 ft 402 kts 210°
2026-04-30 18:19 51.72214 4.57304 18251 ft 405 kts 210°
2026-04-30 18:19 51.69827 4.54828 18784 ft 408 kts 210°
2026-04-30 18:19 51.67430 4.52353 19315 ft 411 kts 211°
2026-04-30 18:19 51.65000 4.49848 19847 ft 414 kts 210°
2026-04-30 18:20 51.62538 4.47316 20381 ft 416 kts 211°
2026-04-30 18:20 51.60109 4.44820 20905 ft 418 kts 211°
2026-04-30 18:20 51.57654 4.42304 21415 ft 420 kts 211°
2026-04-30 18:20 51.55168 4.39759 21956 ft 421 kts 211°
2026-04-30 18:21 51.52689 4.37224 22460 ft 423 kts 211°
2026-04-30 18:21 51.50186 4.34667 22762 ft 430 kts 210°
2026-04-30 18:21 51.47631 4.32064 23109 ft 435 kts 210°
2026-04-30 18:21 51.45067 4.29452 23551 ft 438 kts 210°
2026-04-30 18:22 51.42488 4.26829 23980 ft 440 kts 210°
2026-04-30 18:22 51.37266 4.21531 24793 ft 446 kts 210°
2026-04-30 18:22 51.34645 4.18878 25177 ft 448 kts 210°
2026-04-30 18:23 51.32001 4.16204 25543 ft 450 kts 210°
2026-04-30 18:23 51.29342 4.13518 25907 ft 452 kts 210°
2026-04-30 18:23 51.26660 4.10813 26267 ft 454 kts 210°
2026-04-30 18:23 51.23947 4.08081 26604 ft 457 kts 210°
2026-04-30 18:24 51.18544 4.02649 27309 ft 459 kts 210°
2026-04-30 18:24 51.15870 3.99968 27764 ft 457 kts 210°
2026-04-30 18:24 51.13139 3.97231 28239 ft 455 kts 210°
2026-04-30 18:25 51.10477 3.94571 28691 ft 454 kts 210°
2026-04-30 18:25 51.05125 3.89230 29537 ft 451 kts 210°
2026-04-30 18:25 51.02450 3.86567 29938 ft 450 kts 210°
2026-04-30 18:26 50.97174 3.81325 30699 ft 448 kts 210°
2026-04-30 18:26 50.94543 3.78715 31036 ft 447 kts 210°
2026-04-30 18:26 50.91902 3.76101 31369 ft 447 kts 209°
2026-04-30 18:27 50.86616 3.70877 31925 ft 448 kts 209°
2026-04-30 18:27 50.83946 3.68244 32167 ft 449 kts 210°
2026-04-30 18:28 50.78628 3.63012 32640 ft 451 kts 210°
2026-04-30 18:28 50.75941 3.60373 32874 ft 452 kts 210°
2026-04-30 18:28 50.70590 3.55128 33223 ft 454 kts 210°
2026-04-30 18:29 50.59842 3.44630 33224 ft 454 kts 209°
2026-04-30 18:30 50.49055 3.34154 33220 ft 454 kts 208°
2026-04-30 18:31 50.40989 3.26359 33220 ft 453 kts 208°
2026-04-30 18:32 50.32915 3.18588 33218 ft 454 kts 208°
2026-04-30 18:33 50.24818 3.10824 33217 ft 454 kts 208°
2026-04-30 18:33 50.16739 3.03110 33211 ft 453 kts 208°
2026-04-30 18:34 50.08689 2.95454 33207 ft 452 kts 208°
2026-04-30 18:35 50.03315 2.90360 33201 ft 452 kts 208°
2026-04-30 18:35 49.97921 2.85263 33201 ft 452 kts 208°
2026-04-30 18:36 49.89918 2.77723 33192 ft 452 kts 208°
2026-04-30 18:37 49.81753 2.70058 33189 ft 450 kts 208°
2026-04-30 18:37 49.76411 2.65061 33185 ft 451 kts 208°
2026-04-30 18:38 49.71046 2.60055 33178 ft 451 kts 208°
2026-04-30 18:38 49.65664 2.55047 33177 ft 450 kts 208°
2026-04-30 18:39 49.60324 2.50091 33173 ft 450 kts 208°
2026-04-30 18:39 49.54973 2.45137 33169 ft 450 kts 208°
2026-04-30 18:40 49.49596 2.40172 33168 ft 449 kts 208°
2026-04-30 18:40 49.44247 2.35246 33162 ft 449 kts 208°
2026-04-30 18:41 49.38842 2.30280 33160 ft 449 kts 207°
2026-04-30 18:41 49.33499 2.25384 33153 ft 449 kts 207°
2026-04-30 18:42 49.28140 2.20483 33154 ft 449 kts 207°
2026-04-30 18:42 49.20055 2.13117 33145 ft 448 kts 207°
2026-04-30 18:45 49.01079 1.75491 33130 ft 462 kts 243°
2026-04-30 18:45 48.99731 1.71004 33129 ft 462 kts 243°
2026-04-30 18:46 48.97050 1.62140 33127 ft 461 kts 243°
2026-04-30 18:46 48.94353 1.53281 33127 ft 462 kts 243°
2026-04-30 18:47 48.91633 1.44386 33127 ft 462 kts 243°
2026-04-30 18:47 48.88905 1.35499 33125 ft 462 kts 243°
2026-04-30 18:48 48.86136 1.26507 33126 ft 462 kts 243°
2026-04-30 18:48 48.83373 1.17581 33127 ft 462 kts 243°
2026-04-30 18:49 48.80647 1.08804 33123 ft 461 kts 243°
2026-04-30 18:49 48.77905 0.99993 33124 ft 461 kts 243°
2026-04-30 18:50 48.75136 0.91193 33124 ft 460 kts 241°
2026-04-30 18:50 48.71958 0.82769 33123 ft 460 kts 237°
2026-04-30 18:51 48.68596 0.74482 33121 ft 460 kts 237°
2026-04-30 18:51 48.65235 0.66215 33122 ft 459 kts 237°
2026-04-30 18:52 48.61895 0.58017 33120 ft 459 kts 237°
2026-04-30 18:52 48.58517 0.49746 33116 ft 458 kts 237°
2026-04-30 18:53 48.55148 0.41519 33118 ft 458 kts 237°
2026-04-30 18:53 48.51795 0.33356 33115 ft 458 kts 237°
2026-04-30 18:54 48.48389 0.25092 33116 ft 458 kts 237°
2026-04-30 18:54 48.45016 0.16930 33122 ft 458 kts 237°
2026-04-30 18:55 48.41651 0.08807 33115 ft 457 kts 237°
2026-04-30 18:55 48.36556 -0.03366 33113 ft 457 kts 235°
2026-04-30 18:56 48.30923 -0.14948 33108 ft 456 kts 232°
2026-04-30 18:57 48.25234 -0.26397 33111 ft 456 kts 232°
2026-04-30 18:57 48.21365 -0.33982 33110 ft 455 kts 231°
2026-04-30 18:58 48.15568 -0.45287 33107 ft 455 kts 231°
2026-04-30 18:59 48.09782 -0.56546 33105 ft 455 kts 231°
2026-04-30 19:00 48.02033 -0.71561 33105 ft 454 kts 231°
2026-04-30 19:01 47.94292 -0.86482 33104 ft 453 kts 230°
2026-04-30 19:02 47.88472 -0.97642 33099 ft 454 kts 230°
2026-04-30 19:03 47.80684 -1.12511 33101 ft 454 kts 231°
2026-04-30 19:04 47.72906 -1.27284 33097 ft 454 kts 231°
2026-04-30 19:05 47.65094 -1.42045 33095 ft 454 kts 231°
2026-04-30 19:06 47.57068 -1.56463 33094 ft 453 kts 227°
2026-04-30 19:06 47.50761 -1.66847 33096 ft 452 kts 226°
2026-04-30 19:07 47.44419 -1.77255 33096 ft 451 kts 226°
2026-04-30 19:08 47.35732 -1.90607 33093 ft 451 kts 221°
2026-04-30 19:09 47.28145 -1.98844 33095 ft 452 kts 212°
2026-04-30 19:09 47.22761 -2.03645 33095 ft 453 kts 212°
2026-04-30 19:10 47.11935 -2.13299 33098 ft 454 kts 211°
2026-04-30 19:11 47.03857 -2.20473 33101 ft 453 kts 211°
2026-04-30 19:12 46.98466 -2.25245 33095 ft 453 kts 212°
2026-04-30 19:12 46.93039 -2.30041 33095 ft 455 kts 212°
2026-04-30 19:13 46.82205 -2.39573 33094 ft 455 kts 212°
2026-04-30 19:14 46.76788 -2.44316 33097 ft 454 kts 212°
2026-04-30 19:14 46.71408 -2.49023 33092 ft 454 kts 212°
2026-04-30 19:15 46.65966 -2.53774 33105 ft 454 kts 212°
2026-04-30 19:15 46.57811 -2.60873 33080 ft 456 kts 212°
2026-04-30 19:16 46.52361 -2.65605 33090 ft 457 kts 212°
2026-04-30 19:17 46.44173 -2.72692 33100 ft 458 kts 212°
2026-04-30 19:17 46.35972 -2.79765 33098 ft 456 kts 213°
2026-04-30 19:18 46.27840 -2.86761 33099 ft 455 kts 213°
2026-04-30 19:19 46.22417 -2.91450 33102 ft 454 kts 213°
2026-04-30 19:19 46.14302 -2.98515 33100 ft 454 kts 213°
2026-04-30 19:20 46.08867 -3.03230 33107 ft 454 kts 213°
2026-04-30 19:21 46.00797 -3.10211 33099 ft 453 kts 214°
2026-04-30 19:22 45.90031 -3.19490 33105 ft 451 kts 214°
2026-04-30 19:23 45.73853 -3.33352 33105 ft 449 kts 214°
2026-04-30 19:24 45.65832 -3.40190 33109 ft 448 kts 214°
2026-04-30 19:25 45.52483 -3.51518 33118 ft 446 kts 214°
2026-04-30 19:26 45.41806 -3.60534 33117 ft 446 kts 214°
2026-04-30 19:27 45.33917 -3.67168 33116 ft 444 kts 213°
2026-04-30 19:28 45.25921 -3.73871 33123 ft 443 kts 213°
2026-04-30 19:29 45.15330 -3.82718 33122 ft 442 kts 213°
2026-04-30 19:30 45.04798 -3.91477 33120 ft 441 kts 213°
2026-04-30 19:31 44.94191 -4.00252 33123 ft 441 kts 212°
2026-04-30 19:31 44.86279 -4.06773 33125 ft 440 kts 212°
2026-04-30 19:32 44.80974 -4.11136 33123 ft 439 kts 213°
2026-04-30 19:32 44.75722 -4.15447 33125 ft 437 kts 212°
2026-04-30 19:33 44.70445 -4.19770 33119 ft 438 kts 212°
2026-04-30 19:33 44.65195 -4.24063 33123 ft 437 kts 212°
2026-04-30 19:34 44.59944 -4.28347 33125 ft 437 kts 212°
2026-04-30 19:35 44.52067 -4.34759 33121 ft 436 kts 212°
2026-04-30 19:35 44.46815 -4.39025 33126 ft 436 kts 212°
2026-04-30 19:36 44.41576 -4.43266 33122 ft 436 kts 212°
2026-04-30 19:36 44.33815 -4.49793 33124 ft 435 kts 213°
2026-04-30 19:37 44.28650 -4.54174 33125 ft 435 kts 213°
2026-04-30 19:37 44.23475 -4.58549 33125 ft 434 kts 213°
2026-04-30 19:38 44.18312 -4.62898 33121 ft 434 kts 213°
2026-04-30 19:38 44.13132 -4.67253 33126 ft 434 kts 212°
2026-04-30 19:39 44.07974 -4.71582 33128 ft 434 kts 212°
2026-04-30 19:39 44.02797 -4.75918 33125 ft 433 kts 212°
2026-04-30 19:40 43.97638 -4.80228 33120 ft 433 kts 212°
2026-04-30 19:40 43.92473 -4.84535 33114 ft 433 kts 212°
2026-04-30 19:41 43.87276 -4.88859 33122 ft 433 kts 212°
2026-04-30 19:41 43.82063 -4.93187 33119 ft 433 kts 212°
2026-04-30 19:42 43.76889 -4.97474 33115 ft 433 kts 212°
2026-04-30 19:42 43.71726 -5.01745 33115 ft 432 kts 212°
2026-04-30 19:43 43.66550 -5.06016 33110 ft 432 kts 212°
2026-04-30 19:44 43.58776 -5.12415 33108 ft 431 kts 212°
2026-04-30 19:44 43.53581 -5.16682 33101 ft 431 kts 212°
2026-04-30 19:45 43.48389 -5.20937 33102 ft 431 kts 212°
2026-04-30 19:45 43.43203 -5.25178 33106 ft 431 kts 212°
2026-04-30 19:46 43.38042 -5.29390 33116 ft 431 kts 211°
2026-04-30 19:46 43.32837 -5.33629 33124 ft 431 kts 211°
2026-04-30 19:47 43.27631 -5.37861 33124 ft 431 kts 211°
2026-04-30 19:47 43.22448 -5.42066 33129 ft 431 kts 211°
2026-04-30 19:48 43.17289 -5.46243 33133 ft 431 kts 211°
2026-04-30 19:48 43.12107 -5.50427 33134 ft 430 kts 211°
2026-04-30 19:49 43.06922 -5.54602 33143 ft 429 kts 211°
2026-04-30 19:49 42.99184 -5.60820 33146 ft 430 kts 211°
2026-04-30 19:50 42.94003 -5.64976 33151 ft 430 kts 211°
2026-04-30 19:50 42.88797 -5.69144 33151 ft 430 kts 210°
2026-04-30 19:51 42.83540 -5.73346 33150 ft 430 kts 210°
2026-04-30 19:51 42.78366 -5.77473 33149 ft 430 kts 210°
2026-04-30 19:52 42.73193 -5.81592 33148 ft 430 kts 210°
2026-04-30 19:52 42.67985 -5.85731 33140 ft 430 kts 210°
2026-04-30 19:53 42.62789 -5.89851 33141 ft 430 kts 210°
2026-04-30 19:53 42.57624 -5.93938 33136 ft 430 kts 210°
2026-04-30 19:54 42.52410 -5.98057 33132 ft 430 kts 210°
2026-04-30 19:54 42.47255 -6.02122 33126 ft 430 kts 210°
2026-04-30 19:55 42.42047 -6.06223 33123 ft 430 kts 210°
2026-04-30 19:55 42.36837 -6.10315 33125 ft 430 kts 210°
2026-04-30 19:56 42.32091 -6.14036 33123 ft 430 kts 210°
2026-04-30 19:56 42.27260 -6.17816 33119 ft 430 kts 210°
2026-04-30 19:57 42.22065 -6.21873 33121 ft 430 kts 210°
2026-04-30 19:57 42.16896 -6.25905 33120 ft 430 kts 210°
2026-04-30 19:58 42.11678 -6.29966 33117 ft 430 kts 210°
2026-04-30 19:58 42.06474 -6.34008 33117 ft 430 kts 210°
2026-04-30 19:59 42.01263 -6.38049 33115 ft 430 kts 210°
2026-04-30 20:00 41.93494 -6.44059 33113 ft 430 kts 210°
2026-04-30 20:00 41.88300 -6.48068 33108 ft 429 kts 210°
2026-04-30 20:01 41.80480 -6.54091 33108 ft 430 kts 210°
2026-04-30 20:01 41.75282 -6.58085 33115 ft 430 kts 210°
2026-04-30 20:02 41.67659 -6.64531 33114 ft 431 kts 216°
2026-04-30 20:03 41.60466 -6.71846 33114 ft 431 kts 216°
2026-04-30 20:03 41.55677 -6.76713 33117 ft 431 kts 216°
2026-04-30 20:04 41.50867 -6.81595 33118 ft 430 kts 216°
2026-04-30 20:05 41.43712 -6.88843 33123 ft 430 kts 216°
2026-04-30 20:05 41.36517 -6.96111 33120 ft 430 kts 216°
2026-04-30 20:06 41.31704 -7.00962 33117 ft 430 kts 216°
2026-04-30 20:06 41.26911 -7.05783 33117 ft 430 kts 216°
2026-04-30 20:07 41.22142 -7.10571 33124 ft 430 kts 216°
2026-04-30 20:08 41.14939 -7.17786 33123 ft 429 kts 216°
2026-04-30 20:08 41.10153 -7.22569 33123 ft 429 kts 216°
2026-04-30 20:09 41.05369 -7.27344 33120 ft 429 kts 216°
2026-04-30 20:09 40.98149 -7.34539 33128 ft 430 kts 216°
2026-04-30 20:10 40.90954 -7.41684 33126 ft 429 kts 216°
2026-04-30 20:11 40.83725 -7.48839 33123 ft 429 kts 216°
2026-04-30 20:11 40.78929 -7.53574 33124 ft 429 kts 216°
2026-04-30 20:12 40.71714 -7.60683 33121 ft 427 kts 216°
2026-04-30 20:13 40.66938 -7.65376 33119 ft 427 kts 216°
2026-04-30 20:13 40.62115 -7.70107 33119 ft 427 kts 216°
2026-04-30 20:14 40.57350 -7.74773 33117 ft 427 kts 216°
2026-04-30 20:14 40.52554 -7.79459 33118 ft 427 kts 216°
2026-04-30 20:15 40.47755 -7.84142 33120 ft 427 kts 216°
2026-04-30 20:15 40.42978 -7.88792 33118 ft 426 kts 216°
2026-04-30 20:16 40.38211 -7.93429 33116 ft 425 kts 216°
2026-04-30 20:16 40.33400 -7.98097 33116 ft 426 kts 216°
2026-04-30 20:17 40.28610 -8.02739 33115 ft 426 kts 216°
2026-04-30 20:17 40.23806 -8.07386 33111 ft 426 kts 217°
2026-04-30 20:18 40.19021 -8.12002 33107 ft 424 kts 217°
2026-04-30 20:18 40.14230 -8.16622 32548 ft 429 kts 217°
2026-04-30 20:18 40.11818 -8.18948 31809 ft 430 kts 217°
2026-04-30 20:19 40.09380 -8.21296 31062 ft 430 kts 217°
2026-04-30 20:19 40.06982 -8.23603 30323 ft 431 kts 217°
2026-04-30 20:19 40.04561 -8.25928 29573 ft 431 kts 217°
2026-04-30 20:19 40.02033 -8.28068 29034 ft 425 kts 209°
2026-04-30 20:20 39.99362 -8.29604 28909 ft 412 kts 200°
2026-04-30 20:20 39.93765 -8.31128 28956 ft 411 kts 189°
2026-04-30 20:21 39.88056 -8.32006 29009 ft 411 kts 188°
2026-04-30 20:21 39.82269 -8.32883 29064 ft 412 kts 189°
2026-04-30 20:22 39.76571 -8.33756 29094 ft 411 kts 189°
2026-04-30 20:22 39.70969 -8.34795 29110 ft 387 kts 199°
2026-04-30 20:22 39.68586 -8.36220 29099 ft 368 kts 214°
2026-04-30 20:23 39.66647 -8.38359 29100 ft 362 kts 229°
2026-04-30 20:23 39.63549 -8.43538 29101 ft 363 kts 233°
2026-04-30 20:24 39.60485 -8.48756 29100 ft 362 kts 232°
2026-04-30 20:24 39.56860 -8.53359 29100 ft 365 kts 219°
2026-04-30 20:25 39.50394 -8.58668 28904 ft 368 kts 213°
2026-04-30 20:25 39.48191 -8.60392 28370 ft 368 kts 213°
2026-04-30 20:26 39.43825 -8.63819 27447 ft 363 kts 213°
2026-04-30 20:26 39.39529 -8.67190 26617 ft 356 kts 213°
2026-04-30 20:26 39.37433 -8.68832 26217 ft 352 kts 213°
2026-04-30 20:27 39.33241 -8.72133 25374 ft 347 kts 214°
2026-04-30 20:27 39.29400 -8.75841 24535 ft 342 kts 221°
2026-04-30 20:28 39.25870 -8.79875 23740 ft 337 kts 221°
2026-04-30 20:28 39.22392 -8.83857 22963 ft 332 kts 221°
2026-04-30 20:29 39.18971 -8.87764 22191 ft 327 kts 222°
2026-04-30 20:30 39.13922 -8.93524 21061 ft 319 kts 222°
2026-04-30 20:30 39.08955 -8.99183 19909 ft 313 kts 222°
2026-04-30 20:31 39.04100 -9.04701 18757 ft 306 kts 222°
2026-04-30 20:32 38.99290 -9.09603 18304 ft 286 kts 209°
2026-04-30 20:32 38.95650 -9.11664 17529 ft 284 kts 204°
2026-04-30 20:33 38.93804 -9.12641 17165 ft 282 kts 204°
2026-04-30 20:33 38.90179 -9.14568 16454 ft 279 kts 204°
2026-04-30 20:33 38.88380 -9.15528 16106 ft 278 kts 204°
2026-04-30 20:34 38.84795 -9.17443 15430 ft 275 kts 204°
2026-04-30 20:34 38.81260 -9.19326 14777 ft 285 kts 204°
2026-04-30 20:35 38.79371 -9.20318 14536 ft 293 kts 204°
2026-04-30 20:35 38.77464 -9.21321 14208 ft 292 kts 204°
2026-04-30 20:35 38.73695 -9.23303 13354 ft 292 kts 204°
2026-04-30 20:36 38.71823 -9.24283 12958 ft 291 kts 204°
2026-04-30 20:36 38.69951 -9.25263 12565 ft 289 kts 204°
2026-04-30 20:36 38.66250 -9.27190 11788 ft 287 kts 204°
2026-04-30 20:37 38.64405 -9.28151 11399 ft 285 kts 204°
2026-04-30 20:37 38.62567 -9.29109 11021 ft 283 kts 204°
2026-04-30 20:37 38.60729 -9.30065 10641 ft 282 kts 204°
2026-04-30 20:37 38.58911 -9.31013 10253 ft 280 kts 204°
2026-04-30 20:38 38.57111 -9.31955 9856 ft 280 kts 204°
2026-04-30 20:38 38.55308 -9.32900 9469 ft 279 kts 204°
2026-04-30 20:38 38.53529 -9.33833 9090 ft 277 kts 204°
2026-04-30 20:39 38.49957 -9.35718 8330 ft 274 kts 204°
2026-04-30 20:39 38.48205 -9.36648 7965 ft 273 kts 204°
2026-04-30 20:39 38.46389 -9.37394 7507 ft 276 kts 187°
2026-04-30 20:40 38.42840 -9.35765 6522 ft 286 kts 134°
2026-04-30 20:40 38.41836 -9.33610 6031 ft 289 kts 108°
2026-04-30 20:40 38.41669 -9.31095 5545 ft 291 kts 82°
2026-04-30 20:41 38.43861 -9.27082 5087 ft 269 kts 26°
2026-04-30 20:41 38.45600 -9.26491 5101 ft 250 kts
2026-04-30 20:41 38.47332 -9.26319 5115 ft 247 kts
2026-04-30 20:41 38.49047 -9.26212 5109 ft 247 kts
2026-04-30 20:42 38.50755 -9.26116 5093 ft 238 kts
2026-04-30 20:42 38.52362 -9.26026 5091 ft 226 kts
2026-04-30 20:42 38.55498 -9.25547 4745 ft 227 kts 15°
2026-04-30 20:43 38.56984 -9.24905 4450 ft 225 kts 20°
2026-04-30 20:43 38.58437 -9.24179 4146 ft 224 kts 22°
2026-04-30 20:43 38.59838 -9.23358 3924 ft 217 kts 25°
2026-04-30 20:44 38.62372 -9.21952 3680 ft 187 kts 24°
2026-04-30 20:44 38.63558 -9.21332 3314 ft 179 kts 20°
2026-04-30 20:44 38.65781 -9.20180 2669 ft 166 kts 24°
2026-04-30 20:45 38.67809 -9.19070 2278 ft 153 kts 21°
2026-04-30 20:45 38.68776 -9.18581 2126 ft 147 kts 20°
2026-04-30 20:45 38.69705 -9.18090 1858 ft 143 kts 20°
2026-04-30 20:46 38.72466 -9.16618 1271 ft 142 kts 20°
2026-04-30 20:46 38.73383 -9.16129 1122 ft 142 kts 21°
2026-04-30 20:47 38.75195 -9.15169 737 ft 141 kts 21°
2026-04-30 20:47 38.76108 -9.14673 530 ft 140 kts 21°
2026-04-30 20:48 38.77744 -9.13802 382 ft 93 kts 22°
2026-04-30 20:48 38.78178 -9.13561 382 ft 38 kts 38°
2026-04-30 20:48 38.78107 -9.13437 382 ft 17 kts 170°
2026-04-30 20:48 38.77990 -9.13407 382 ft 17 kts 168°
2026-04-30 20:49 38.77879 -9.13376 382 ft 16 kts 168°
2026-04-30 20:49 38.77761 -9.13345 382 ft 16 kts 169°
2026-04-30 20:49 38.77647 -9.13318 382 ft 16 kts 177°
2026-04-30 20:50 38.77417 -9.13274 382 ft 16 kts 168°
2026-04-30 20:50 38.77303 -9.13246 382 ft 16 kts 169°
2026-04-30 20:50 38.77188 -9.13219 382 ft 16 kts 169°
2026-04-30 20:50 38.77075 -9.13188 382 ft 16 kts 167°
2026-04-30 20:51 38.77014 -9.13163 382 ft 4 kts 113°
2026-04-30 20:51 38.77026 -9.13095 382 ft 1 kts 78°
2026-04-30 20:51 38.77027 -9.13091 382 ft 0 kts 78°